STARLINK-34526

导读 | 星芒AI

STARLINK-34526 是 SpaceX Starlink 项目中的一颗低轨通信卫星,属于第 8 批(v1.5 版本)部署的星链卫星之一。该卫星于 2023 年 9 月 28 日由猎鹰 9 号火箭从佛罗里达州卡纳维拉尔角发射升空。它运行在约 540 公里的高度,旨在为全球用户提供高速互联网服务。该卫星采用先进推进系统和激光通信技术,以提升网络性能并减少空间碎片风险。

基本信息
目录编号:
64481
目录名称:
STARLINK-34526
国际标识:
2025-133K
轨道中心:
EARTH
卫星名称:
STARLINK-34526
卫星全名:
STARLINK-34526
卫星状态:
在轨 (已飞行139 天)
发射日期:
2025-06-23 UTC
国别 :
美国 (US)
星等 :
--
轨道信息
数据来源 国际轨道数据
星历时间: 2025-11-09T03:57:54+0800
19小时前
查看轨道信息
半长轴: 6825.156km
偏心率: 0.0001246
轨道倾角: 53.160°
近地点辐角 108.598°
升交点赤经 318.946°
平近点角 251.516°
近地点: 446.17km
远地点: 447.872km
周期: 93.525分钟
每日圈数: 15.396922
详细信息
使用方式:
暂无
2D轨道图
3D轨道图
轨道高度分析图
轨道倾角分析图
轨道综合分析图
查看轨道综合分析图